sat.trackr.live / text

‹ back to catalog

STARLINK-37477

NORAD 68912 · 2026-097T

PAYLOAD ACTIVE UNKNOWN

§ Identity

Operator
Country
US
Launch date
2026-04-30
Launch site
AFWTR
Launch vehicle
Mass (kg)
RCS (m²)

Purposes: comms

External: N2YO · Heavens-Above · Gunter

§ Orbital elements

Epoch: 2026-09-19T23:23:15.835776Z

Period
93.91 min
Inclination
97.2857°
Eccentricity
0.0001391
Mean motion
15.33449181 rev/d
Perigee alt
464.6 km
Apogee alt
466.5 km
Semi-major
6,843.7 km
B*
3.3731e-4
RAAN
97.1600°
Arg perigee
119.1237°
Mean anomaly
241.0146°
Rev number
2,201

§ Raw data

STARLINK-374771 68912U 26097T   26262.97448884  .00010832  00000+0  33731-3 0  99932 68912  97.2857  97.1600 0001391 119.1237 241.0146 15.33449181 22019

JSON: /api/v1/satellites/68912 · /tle

For live sub-satellite position, see the globe view (requires WebGL).

§ Visibility from observer

Set your observer location to see the next 7 days of passes ≥ 10°. The values pass through the URL so the page stays shareable.

No JS? Fill the form by hand. The geolocation button needs JavaScript.